Location: Waco, TX
(31.5480°N, 97.1670°W)
Time: 04:02:02
(UTC-06:00)

ISS - Pass Details

Date: 21 November 2017
Orbit: 401 x 407 km, 51.6° (Epoch: 18 November)

Event Time Altitude Azimuth Distance (km) Brightness Sun altitude
Rises 21:49:06 0° 273° (W) 2,314 - -55.5°
Reaches altitude 10° 21:52:32 10° 311° (NW) 1,456 - -56.2°
Maximum altitude 21:53:31 11° 329° (NNW) 1,397 - -56.4°
Drops below altitude 10° 21:54:30 10° 346° (NNW) 1,457 - -56.6°
Sets 21:57:56 0° 25° (NNE) 2,317 - -57.3°
